This is the latest recevied weather packets stored in our database for station/object KD2FGL-13. If no packets are shown the sender has not sent any weather packets the latest 10 day(s).
| Time | Temp. | Humidity | Pressure | Rain* | Wind** | Luminosity | Snow |
|---|---|---|---|---|---|---|---|
| 1777641721 | 13.33° C | 53% | 1014.8 hPa | 0 mm | - | - | - |
| 1777641417 | 12.78° C | 55% | 1014.8 hPa | 0 mm | - | - | - |
| 1777640505 | 10.56° C | 58% | 1015.1 hPa | 0 mm | - | - | - |
| 1777640202 | 10.56° C | 59% | 1015.1 hPa | 0 mm | - | - | - |
| 1777639594 | 10° C | 59% | 1015.2 hPa | 0 mm | - | - | - |
| 1777636554 | 8.89° C | 62% | 1015 hPa | 0 mm | - | - | - |
| 1777636249 | 8.89° C | 63% | 1015 hPa | 0 mm | - | - | - |
| 1777635947 | 8.89° C | 63% | 1014.9 hPa | 0 mm | - | - | - |
| 1777635642 | 8.89° C | 63% | 1014.9 hPa | 0 mm | - | - | - |
| 1777635034 | 8.33° C | 64% | 1015 hPa | 0 mm | - | - | - |
| 1777634731 | 7.78° C | 65% | 1015 hPa | 0 mm | - | - | - |
| 1777634431 | 7.78° C | 66% | 1014.9 hPa | 0 mm | - | - | - |
| 1777633515 | 6.67° C | 68% | 1014.8 hPa | 0 mm | - | - | - |
| 1777632907 | 6.11° C | 68% | 1014.5 hPa | 0 mm | - | - | - |
| 1777632603 | 5.56° C | 68% | 1014.5 hPa | 0 mm | - | - | - |
| 1777632300 | 5.56° C | 68% | 1014.5 hPa | 0 mm | - | - | - |
| 1777631692 | 5.56° C | 69% | 1014.3 hPa | 0 mm | - | - | - |
| 1777631387 | 5.56° C | 69% | 1014.2 hPa | 0 mm | - | - | - |
| 1777631083 | 5° C | 69% | 1014.3 hPa | 0 mm | - | - | - |
| 1777630781 | 5° C | 69% | 1014.3 hPa | 0 mm | - | - | - |
| 1777630475 | 5° C | 69% | 1014.2 hPa | 0 mm | - | - | - |
| 1777629868 | 5.56° C | 69% | 1014.2 hPa | 0 mm | - | - | - |
| 1777629564 | 5.56° C | 68% | 1014.1 hPa | 0 mm | - | - | - |
| 1777628956 | 5.56° C | 68% | 1014 hPa | 0 mm | - | - | - |
| 1777628653 | 5.56° C | 68% | 1014.1 hPa | 0 mm | - | - | - |
* Rain since midnight (hover to see other rain measurements)
** Current wind speed in m/s (hover to see current wind gust speed)